Startpagina
METAR-TAF:

METAR-TAF

Vliegvelden :

Lowell, Idaho, Verenigde Staten

breedte: 46-08-39N, lengte: 115-35-47W, hoogte: 480 m

Actueel weer

Dit bericht is 58 minuten geleden gemaakt, om 22:52 UTC
Wind 3 kt uit het noordnoordwesten
Temperatuur 1°C
Vochtigheid 93%
Druk 1024 hPa

METAR: KP69 232252Z AUTO 34003KT 01/00 A3024 RMK AO1 SLP262 T00060000 $

Tijdstip: 15:50 (23:50 UTC)


TAF: ontbreekt

Waarnemingen en weersverwachtingen van meer dan 4000 vliegvelden (METAR en TAF).

De beschikbare stations zijn de gele en rode punten op de kaart.

Ga met uw muis naar het station om de naam te zien.

Klik dan om waarnemingen en weersverwachtingen te zien.

kaart wijzigen: klik op de groene knoppen met een zwart kruis om in te zoomen, op de groene knop met een streepje om uit te zoomen of op de groene pijlen voor aangrenzende kaarten.


METAR-TAF: